Regional Weather Roundup
Issued by NWS

Home | Current Version | Previous Version | Graphics & Text | Print | Product List | Glossary On
Versions: 1 2 3 4 5 6 7 8 9 10 11 12 13 14 15 16 17 18 19 20 21 22 23 24 25 26 27 28 29 30 31 32 33 34 35 36 37 38 39 40 41 42 43 44 45 46 47 48 49 50
000
ASUS44 KMEG 310710
RWRTN
TENNESSEE HOURLY STATE WEATHER ROUNDUP
NATIONAL WEATHER SERVICE MEMPHIS TN
200 AM CDT FRI JUL 31 2015

TNZ002-004-019-021-049-052-054-088>092-310800-
WEST TENNESSEE

CITY           SKY/WX    TMP DP  RH WIND       PRES   REMARKS
MEMPHIS INTL   PTCLDY    76  62  62 N7        30.07R
NWS MEMPHIS      N/A     74 N/A N/A MISG        N/A
JACKSON        PTCLDY    69  63  81 CALM      30.06F
DYERSBURG        N/A    N/A N/A N/A MISG        N/A
PARIS          CLEAR     63  61  94 CALM      30.09F
LEXINGTON      CLEAR     66  63  88 NE3       30.06S
$$

TNZ008-025-027-028-033-062-065-066-310800-
NORTH MIDDLE TENNESSEE

CITY           SKY/WX    TMP DP  RH WIND       PRES   REMARKS
NASHVILLE      PTCLDY    72  62  71 N3        30.07F
CLARKSVILLE    PTCLDY    66  63  90 CALM      30.08F
SMYRNA         PTCLDY    65  62  90 CALM      30.07F
CROSSVILLE     CLEAR     67  58  72 NE5       30.10F
$$

TNZ061-075-076-078-094-096-097-310800-
SOUTH MIDDLE TENNESSEE

CITY           SKY/WX    TMP DP  RH WIND       PRES   REMARKS
FAYETTEVILLE   CLEAR     70  61  73 N12       30.05S
TULLAHOMA      CLEAR     68  59  73 N3        30.07F
WINCHESTER     CLEAR     66  63  88 CALM      30.06F
MCMINNVILLE    CLEAR     64  64 100 CALM      30.07F
COLUMBIA       CLEAR     66  66 100 CALM      30.05F
SHELBYVILLE    CLEAR     66  63  88 N3        30.06F
$$

TNZ017-018-042-046-047-310800-
NORTHEAST TENNESSEE

CITY           SKY/WX    TMP DP  RH WIND       PRES   REMARKS
TRI CITIES     PTCLDY    65  61  87 CALM      30.07S
ELIZABETHTON   SUNNY     63  61  94 CALM      30.08S
$$

TNZ012-013-036-069-073-074-310800-
CENTRAL EAST TENNESSEE

CITY           SKY/WX    TMP DP  RH WIND       PRES   REMARKS
KNOXVILLE      PTCLDY    72  62  71 N7        30.03F
OAK RIDGE      CLEAR     69  63  81 CALM      30.06F
GATLINBURG     CLOUDY    72  63  73 CALM      30.04F
MORRISTOWN     SUNNY     72  61  68 CALM      30.07F
$$

TNZ083-085-099-310800-
SOUTHEAST TENNESSEE

CITY           SKY/WX    TMP DP  RH WIND       PRES   REMARKS
CHATTANOOGA    CLEAR     75  61  61 N10       30.02F
$$

SKY/WX REPORTED AS FAIR MEANS FEW OR NO CLOUDS BELOW
12 THOUSAND FEET.




USA.gov is the U.S. government's official web portal to all federal, state and local government web resources and services.